GW1010 Weather Reports


Display with metric or nautical units.
time (UTC)temp
F
wind
direction
speed
MPH
gust
MPH
rain 1hr
in
rain 24hr
in
rain mn
in
humidity
%
barometer
mb
20260902171551 66 323 2.0 4.0 0.00 0.00 0.00 61 1019.0
20260902171025 65 0 0.0 4.0 0.00 0.00 0.00 64 1019.1
20260902170526 64 314 1.0 5.0 0.00 0.00 0.00 64 1019.1
20260902170046 64 300 2.0 5.0 0.00 0.00 0.00 65 1019.2
20260902165529 63 323 0.0 4.0 0.00 0.00 0.00 68 1019.3
20260902165026 62 309 1.0 3.0 0.00 0.00 0.00 70 1019.2
20260902164549 62 308 0.0 3.0 0.00 0.00 0.00 72 1019.2
20260902164027 61 0 0.0 3.0 0.00 0.00 0.00 75 1019.2
20260902163528 60 0 0.0 3.0 0.00 0.00 0.00 78 1019.3
20260902163100 59 0 0.0 3.0 0.00 0.00 0.00 78 1019.2
20260902162525 58 0 1.0 3.0 0.00 0.00 0.00 79 1019.2
20260902162030 57 335 0.0 3.0 0.00 0.00 0.00 80 1019.2
20260902161544 57 0 0.0 3.0 0.00 0.00 0.00 82 1019.2
20260902161029 56 0 1.0 3.0 0.00 0.00 0.00 83 1019.2
20260902160529 55 0 0.0 2.0 0.00 0.00 0.00 84 1019.2
20260902160049 55 316 1.0 3.0 0.00 0.00 0.00 85 1019.2
20260902155528 54 0 0.0 3.0 0.00 0.00 0.00 86 1019.2
20260902155032 53 312 0.0 2.0 0.00 0.00 0.00 87 1019.2
20260902154547 53 0 0.0 0.0 0.00 0.00 0.00 89 1019.2
20260902154027 52 0 0.0 1.0 0.00 0.00 0.00 89 1019.2
20260902153526 51 0 0.0 1.0 0.00 0.00 0.00 91 1019.1
20260902153045 51 0 0.0 0.0 0.00 0.00 0.00 92 1019.2
20260902152526 50 0 0.0 0.0 0.00 0.00 0.00 93 1019.2
20260902152030 49 0 0.0 0.0 0.00 0.00 0.00 94 1019.1
20260902151554 48 0 0.0 0.0 0.00 0.00 0.00 95 1019.1
20260902151029 48 0 0.0 0.0 0.00 0.00 0.00 95 1019.0
20260902150529 47 0 0.0 0.0 0.00 0.00 0.00 95 1018.9
20260902150044 47 0 0.0 0.0 0.00 0.00 0.00 96 1019.0
20260902145526 46 0 0.0 0.0 0.00 0.00 0.00 96 1019.0
20260902145026 46 0 0.0 0.0 0.00 0.00 0.00 96 1019.0
20260902144544 45 0 0.0 0.0 0.00 0.00 0.00 96 1019.0
20260902144026 45 0 0.0 0.0 0.00 0.00 0.00 96 1019.0
20260902143527 45 0 0.0 0.0 0.00 0.00 0.00 96 1019.0
20260902143051 44 0 0.0 0.0 0.00 0.00 0.00 96 1018.9
20260902142526 43 0 0.0 0.0 0.00 0.00 0.00 96 1018.8
20260902142029 43 0 0.0 0.0 0.00 0.00 0.00 95 1018.9
20260902141548 42 0 0.0 0.0 0.00 0.00 0.00 95 1018.7
20260902141028 42 0 0.0 0.0 0.00 0.00 0.00 95 1018.6
20260902140528 42 0 0.0 0.0 0.00 0.00 0.00 95 1018.7
20260902140045 42 0 0.0 0.0 0.00 0.00 0.00 95 1018.7
20260902135528 42 0 0.0 0.0 0.00 0.00 0.00 95 1018.6
20260902135027 42 0 0.0 0.0 0.00 0.00 0.00 95 1018.7
20260902134556 42 0 0.0 0.0 0.00 0.00 0.00 95 1018.6
20260902134029 42 0 0.0 0.0 0.00 0.00 0.00 95 1018.6
20260902133529 42 0 0.0 0.0 0.00 0.00 0.00 95 1018.6
20260902133058 42 0 0.0 0.0 0.00 0.00 0.00 94 1018.8
20260902132527 42 0 0.0 0.0 0.00 0.00 0.00 94 1018.8
20260902132028 43 0 0.0 0.0 0.00 0.00 0.00 95 1018.9
20260902131557 43 0 0.0 0.0 0.00 0.00 0.00 95 1018.8
20260902131029 43 0 0.0 0.0 0.00 0.00 0.00 95 1018.8
20260902130528 43 0 0.0 0.0 0.00 0.00 0.00 95 1018.7
20260902130057 43 0 0.0 0.0 0.00 0.00 0.00 95 1018.8
20260902125526 43 0 0.0 0.0 0.00 0.00 0.00 95 1018.7
20260902125030 43 0 0.0 0.0 0.00 0.00 0.00 94 1018.7
20260902124541 43 0 0.0 0.0 0.00 0.00 0.00 94 1018.7
20260902124030 43 0 0.0 0.0 0.00 0.00 0.00 94 1018.7
20260902123528 43 0 0.0 0.0 0.00 0.00 0.00 94 1018.7
20260902123105 43 0 0.0 0.0 0.00 0.00 0.00 94 1018.7
20260902122531 43 0 0.0 0.0 0.00 0.00 0.00 94 1018.7
20260902122028 44 0 0.0 0.0 0.00 0.00 0.00 94 1018.7
20260902121556 44 0 0.0 0.0 0.00 0.00 0.00 94 1018.7
20260902121028 44 0 0.0 0.0 0.00 0.00 0.00 94 1018.6
20260902120529 44 0 0.0 0.0 0.00 0.00 0.00 94 1018.6
20260902120106 44 0 0.0 0.0 0.00 0.00 0.00 94 1018.6
20260902115528 44 0 0.0 0.0 0.00 0.00 0.00 94 1018.5
20260902115028 44 0 0.0 0.0 0.00 0.00 0.00 94 1018.4
20260902114541 44 0 0.0 0.0 0.00 0.00 0.00 94 1018.5
20260902114028 45 0 0.0 0.0 0.00 0.00 0.00 94 1018.5
20260902113527 45 0 0.0 0.0 0.00 0.00 0.00 94 1018.5
20260902113052 45 0 0.0 0.0 0.00 0.00 0.00 94 1018.4
20260902112527 45 0 0.0 0.0 0.00 0.00 0.00 94 1018.4
20260902112031 45 0 0.0 0.0 0.00 0.00 0.00 94 1018.4
20260902111558 45 0 0.0 0.0 0.00 0.00 0.00 94 1018.4
20260902111026 45 0 0.0 0.0 0.00 0.00 0.00 94 1018.4
20260902110528 45 0 0.0 0.0 0.00 0.00 0.00 94 1018.4
20260902110046 45 0 0.0 0.0 0.00 0.00 0.00 93 1018.3
20260902105525 45 0 0.0 0.0 0.00 0.00 0.00 93 1018.3
20260902105026 45 0 0.0 0.0 0.00 0.00 0.00 93 1018.3
20260902104542 46 0 0.0 0.0 0.00 0.00 0.00 93 1018.2
20260902104027 46 0 0.0 0.0 0.00 0.00 0.00 94 1018.2
20260902103528 46 0 0.0 0.0 0.00 0.00 0.00 94 1018.3
20260902103048 46 0 0.0 0.0 0.00 0.00 0.00 93 1018.1
20260902102529 46 0 0.0 0.0 0.00 0.00 0.00 93 1018.1
20260902102030 46 0 0.0 0.0 0.00 0.00 0.00 93 1018.2
20260902101546 46 0 0.0 0.0 0.00 0.00 0.00 93 1018.1
20260902101030 46 0 0.0 0.0 0.00 0.00 0.00 93 1018.1
20260902100529 47 0 0.0 0.0 0.00 0.00 0.00 93 1018.1
20260902100056 47 0 0.0 0.0 0.00 0.00 0.00 93 1018.2
20260902095528 47 0 0.0 0.0 0.00 0.00 0.00 93 1018.2
20260902095028 47 0 0.0 0.0 0.00 0.00 0.00 93 1018.2
20260902094553 47 0 0.0 0.0 0.00 0.00 0.00 93 1018.2
20260902094029 47 0 0.0 0.0 0.00 0.00 0.00 93 1018.3
20260902093530 47 0 0.0 0.0 0.00 0.00 0.00 93 1018.3
20260902093043 48 0 0.0 0.0 0.00 0.00 0.00 93 1018.4
20260902092528 48 0 0.0 0.0 0.00 0.00 0.00 93 1018.4
20260902092029 48 0 0.0 0.0 0.00 0.00 0.00 93 1018.4
20260902091546 48 0 0.0 0.0 0.00 0.00 0.00 92 1018.4
20260902091029 48 0 0.0 0.0 0.00 0.00 0.00 92 1018.4
20260902090530 48 0 0.0 0.0 0.00 0.00 0.00 92 1018.2
20260902090051 48 0 0.0 0.0 0.00 0.00 0.00 93 1018.3
20260902085526 49 0 0.0 0.0 0.00 0.00 0.00 93 1018.4
20260902085029 49 0 0.0 0.0 0.00 0.00 0.00 92 1018.4
20260902084543 49 0 0.0 0.0 0.00 0.00 0.00 92 1018.4
20260902084028 49 0 0.0 0.0 0.00 0.00 0.00 92 1018.4
20260902083530 49 0 0.0 0.0 0.00 0.00 0.00 92 1018.4
20260902083046 49 0 0.0 0.0 0.00 0.00 0.00 92 1018.4
20260902082531 49 0 0.0 0.0 0.00 0.00 0.00 91 1018.4
20260902082029 49 0 0.0 0.0 0.00 0.00 0.00 91 1018.4
20260902081545 50 0 0.0 0.0 0.00 0.00 0.00 91 1018.4
20260902081028 50 0 0.0 0.0 0.00 0.00 0.00 91 1018.3
20260902080530 50 0 0.0 0.0 0.00 0.00 0.00 91 1018.3
20260902080057 50 0 0.0 0.0 0.00 0.00 0.00 91 1018.4
20260902075529 51 0 0.0 0.0 0.00 0.00 0.00 91 1018.4
20260902075027 51 0 0.0 0.0 0.00 0.00 0.00 92 1018.3
20260902074559 51 0 0.0 0.0 0.00 0.00 0.00 92 1018.3
20260902074027 51 0 0.0 0.0 0.00 0.00 0.00 92 1018.3
20260902073528 51 0 0.0 0.0 0.00 0.00 0.00 91 1018.3
20260902073048 51 0 0.0 0.0 0.00 0.00 0.00 91 1018.1
20260902072529 51 0 0.0 0.0 0.00 0.00 0.00 91 1018.2
20260902072030 50 0 0.0 0.0 0.00 0.00 0.00 90 1018.2
20260902071548 51 0 0.0 0.0 0.00 0.00 0.00 92 1018.2
20260902071028 51 0 0.0 0.0 0.00 0.00 0.00 92 1018.2
20260902070528 50 0 0.0 0.0 0.00 0.00 0.00 90 1018.1
20260902070047 51 0 0.0 0.0 0.00 0.00 0.00 91 1018.2
20260902065531 51 0 0.0 0.0 0.00 0.00 0.00 91 1018.2
20260902065028 51 0 0.0 0.0 0.00 0.00 0.00 90 1018.2
20260902064543 51 0 0.0 0.0 0.00 0.00 0.00 89 1018.1
20260902064029 51 0 0.0 0.0 0.00 0.00 0.00 89 1018.1
20260902063531 51 0 0.0 0.0 0.00 0.00 0.00 89 1018.1
20260902063058 51 0 0.0 0.0 0.00 0.00 0.00 88 1018.0
20260902062530 52 0 0.0 0.0 0.00 0.00 0.00 88 1018.1
20260902062030 52 0 0.0 0.0 0.00 0.00 0.00 88 1018.1
20260902061549 52 0 0.0 0.0 0.00 0.00 0.00 88 1018.1
20260902061028 53 0 0.0 0.0 0.00 0.00 0.00 87 1018.2
20260902060528 53 0 0.0 0.0 0.00 0.00 0.00 88 1018.1
20260902060047 53 0 0.0 0.0 0.00 0.00 0.00 88 1018.2
20260902055528 53 0 0.0 0.0 0.00 0.00 0.00 87 1018.1
20260902055026 54 0 0.0 0.0 0.00 0.00 0.00 88 1018.1
20260902054547 54 0 0.0 1.0 0.00 0.00 0.00 87 1018.0
20260902054028 54 0 0.0 1.0 0.00 0.00 0.00 87 1018.1
20260902053529 54 0 0.0 1.0 0.00 0.00 0.00 88 1018.1
20260902053050 54 0 0.0 0.0 0.00 0.00 0.00 87 1018.1
20260902052533 54 0 0.0 0.0 0.00 0.00 0.00 86 1018.2
20260902052034 54 0 0.0 0.0 0.00 0.00 0.00 86 1018.2
20260902051549 54 0 0.0 0.0 0.00 0.00 0.00 87 1018.1
20260902051028 54 0 0.0 0.0 0.00 0.00 0.00 86 1018.2
20260902050529 55 0 0.0 0.0 0.00 0.00 0.00 86 1018.1
20260902050059 55 0 0.0 0.0 0.00 0.00 0.00 86 1018.1
20260902045529 55 0 0.0 0.0 0.00 0.00 0.00 86 1018.1
20260902045030 55 0 0.0 0.0 0.00 0.00 0.00 85 1018.0
20260902044544 55 0 0.0 0.0 0.00 0.00 0.00 85 1017.9
20260902044030 55 0 0.0 0.0 0.00 0.00 0.00 85 1017.9
20260902043528 56 0 0.0 0.0 0.00 0.00 0.00 85 1017.6
20260902043053 56 0 0.0 0.0 0.00 0.00 0.00 85 1017.6
20260902042531 56 0 0.0 0.0 0.00 0.00 0.00 84 1017.6
20260902042031 56 0 0.0 0.0 0.00 0.00 0.00 83 1017.6
20260902041552 57 0 0.0 0.0 0.00 0.00 0.00 83 1017.5
20260902041031 57 0 0.0 1.0 0.00 0.00 0.00 83 1017.4
20260902040528 57 0 0.0 2.0 0.00 0.00 0.00 82 1017.4
20260902040048 57 0 0.0 2.0 0.00 0.00 0.00 82 1017.4
20260902035527 57 119 1.0 2.0 0.00 0.00 0.00 82 1017.3
20260902035028 57 0 0.0 2.0 0.00 0.00 0.00 81 1017.2
20260902034547 58 0 0.0 2.0 0.00 0.00 0.00 81 1017.1
20260902034029 58 0 0.0 2.0 0.00 0.00 0.00 81 1016.8
20260902033529 58 0 0.0 1.0 0.00 0.00 0.00 80 1016.7
20260902033057 58 0 0.0 4.0 0.00 0.00 0.00 80 1016.6
20260902032528 58 152 0.0 4.0 0.00 0.00 0.00 79 1016.6
20260902032030 58 148 1.0 4.0 0.00 0.00 0.00 79 1016.5
20260902031605 58 180 1.0 4.0 0.00 0.00 0.00 79 1016.5
20260902031032 58 188 0.0 4.0 0.00 0.00 0.00 79 1016.6
20260902030527 59 103 0.0 3.0 0.00 0.00 0.00 78 1016.5
20260902030057 59 141 0.0 3.0 0.00 0.00 0.00 78 1016.4
20260902025528 59 97 0.0 4.0 0.00 0.00 0.00 77 1016.4
20260902025029 59 146 0.0 6.0 0.00 0.00 0.00 76 1016.4
20260902024558 59 118 2.0 6.0 0.00 0.00 0.00 76 1016.4
20260902024025 60 212 2.0 6.0 0.00 0.00 0.00 75 1016.4
20260902023529 60 81 1.0 6.0 0.00 0.00 0.00 75 1016.3
20260902023042 60 233 1.0 6.0 0.00 0.00 0.00 74 1016.3
20260902022529 60 202 2.0 5.0 0.00 0.00 0.00 74 1016.2
20260902022029 61 166 1.0 7.0 0.00 0.00 0.00 73 1016.3
20260902021601 61 229 2.0 8.0 0.00 0.00 0.00 73 1016.2
20260902021028 62 0 1.0 8.0 0.00 0.00 0.00 73 1016.2
20260902020528 62 252 2.0 8.0 0.00 0.00 0.00 72 1016.1
20260902020057 62 115 2.0 8.0 0.00 0.00 0.00 71 1016.2
20260902015528 63 333 1.0 5.0 0.00 0.00 0.00 71 1016.2
20260902015028 63 177 1.0 5.0 0.00 0.00 0.00 70 1016.1
20260902014547 64 116 0.0 6.0 0.00 0.00 0.00 69 1016.2
20260902014027 64 260 2.0 6.0 0.00 0.00 0.00 68 1016.3
20260902013528 65 229 1.0 6.0 0.00 0.00 0.00 66 1016.3
20260902013043 65 260 2.0 6.0 0.00 0.00 0.00 65 1016.4
20260902012528 66 221 1.0 6.0 0.00 0.00 0.00 64 1016.3
20260902012028 66 238 1.0 6.0 0.00 0.00 0.00 62 1016.3
20260902011552 67 236 1.0 6.0 0.00 0.00 0.00 61 1016.2
20260902011032 68 229 1.0 5.0 0.00 0.00 0.00 60 1016.2
20260902010528 68 236 2.0 8.0 0.00 0.00 0.00 60 1016.2
20260902010050 68 219 2.0 8.0 0.00 0.00 0.00 59 1016.2
20260902005528 69 141 3.0 8.0 0.00 0.00 0.00 57 1016.3
20260902005026 69 133 1.0 4.0 0.00 0.00 0.00 57 1016.3
20260902004549 69 0 1.0 9.0 0.00 0.00 0.00 57 1016.2
20260902004028 69 127 2.0 9.0 0.00 0.00 0.00 57 1016.1
20260902003528 69 250 1.0 9.0 0.00 0.00 0.00 58 1016.1
20260902003047 69 240 3.0 9.0 0.00 0.00 0.00 56 1016.1
20260902002527 69 129 2.0 7.0 0.00 0.00 0.00 56 1016.0
20260902002031 70 112 2.0 7.0 0.00 0.00 0.00 55 1016.0
20260902001543 70 217 1.0 9.0 0.00 0.00 0.00 56 1015.9
20260902001027 70 97 3.0 9.0 0.00 0.00 0.00 55 1016.0
20260902000530 70 98 2.0 9.0 0.00 0.00 0.00 53 1016.0
20260902000045 70 82 3.0 9.0 0.00 0.00 0.00 53 1016.0
20260901235529 71 58 2.0 6.0 0.00 0.00 0.00 53 1016.0
20260901235029 71 117 3.0 8.0 0.00 0.00 0.00 51 1016.1
20260901234554 71 90 3.0 8.0 0.00 0.00 0.00 52 1016.0
20260901234029 72 79 2.0 10.0 0.00 0.00 0.00 52 1016.1
20260901233526 72 64 2.0 10.0 0.00 0.00 0.00 51 1016.0
20260901233049 72 156 1.0 9.0 0.00 0.00 0.00 50 1016.1
20260901232532 72 259 3.0 8.0 0.00 0.00 0.00 48 1015.9
20260901232028 73 123 3.0 7.0 0.00 0.00 0.00 47 1016.0
20260901231545 74 148 1.0 7.0 0.00 0.00 0.00 45 1016.0
20260901231027 74 64 1.0 7.0 0.00 0.00 0.00 45 1016.1
20260901230529 74 84 2.0 8.0 0.00 0.00 0.00 45 1016.1
20260901230056 74 121 2.0 8.0 0.00 0.00 0.00 45 1016.1
20260901225530 74 153 2.0 6.0 0.00 0.00 0.00 44 1016.0
20260901225029 74 77 3.0 10.0 0.00 0.00 0.00 44 1016.1
20260901224550 74 358 2.0 10.0 0.00 0.00 0.00 45 1016.0
20260901224031 74 238 3.0 8.0 0.00 0.00 0.00 46 1016.0
20260901223527 74 20 2.0 6.0 0.00 0.00 0.00 46 1016.0
20260901223101 75 314 1.0 5.0 0.00 0.00 0.00 47 1016.1
20260901222525 75 92 2.0 7.0 0.00 0.00 0.00 46 1016.1
20260901222028 74 78 1.0 7.0 0.00 0.00 0.00 47 1016.2
20260901221547 74 329 2.0 7.0 0.00 0.00 0.00 46 1016.2
20260901221028 74 107 2.0 7.0 0.00 0.00 0.00 45 1016.3
20260901220530 74 281 1.0 8.0 0.00 0.00 0.00 46 1016.4
20260901215527 74 71 3.0 7.0 0.00 0.00 0.00 45 1016.4
20260901215027 74 281 1.0 10.0 0.00 0.00 0.00 45 1016.5
20260901214553 74 122 3.0 10.0 0.00 0.00 0.00 46 1016.6
20260901214029 75 239 1.0 7.0 0.00 0.00 0.00 47 1016.7
20260901213528 74 204 3.0 7.0 0.00 0.00 0.00 45 1016.6
20260901213052 74 264 1.0 7.0 0.00 0.00 0.00 47 1016.7
20260901212526 74 207 1.0 7.0 0.00 0.00 0.00 48 1016.7
20260901212029 74 260 2.0 6.0 0.00 0.00 0.00 46 1016.7
20260901211548 75 172 1.0 8.0 0.00 0.00 0.00 47 1016.7
20260901211027 75 245 2.0 8.0 0.00 0.00 0.00 47 1016.7
20260901210527 75 262 2.0 7.0 0.00 0.00 0.00 47 1016.7
20260901210043 75 320 2.0 7.0 0.00 0.00 0.00 45 1016.8
20260901205527 75 307 1.0 6.0 0.00 0.00 0.00 46 1016.8
20260901205028 76 209 2.0 5.0 0.00 0.00 0.00 46 1016.9
20260901204543 76 212 2.0 4.0 0.00 0.00 0.00 44 1017.0
20260901204027 76 320 2.0 5.0 0.00 0.00 0.00 46 1017.0
20260901203527 76 203 2.0 9.0 0.00 0.00 0.00 46 1016.9
20260901203053 76 210 2.0 9.0 0.00 0.00 0.00 44 1016.9
20260901202528 76 125 2.0 9.0 0.00 0.00 0.00 47 1016.8
20260901202029 76 173 2.0 8.0 0.00 0.00 0.00 48 1016.8
20260901201553 76 235 1.0 8.0 0.00 0.00 0.00 48 1016.9
20260901201028 77 217 2.0 6.0 0.00 0.00 0.00 48 1016.9
20260901200527 77 238 1.0 9.0 0.00 0.00 0.00 47 1016.8
20260901200047 76 245 2.0 9.0 0.00 0.00 0.00 47 1016.9
20260901195527 77 305 1.0 5.0 0.00 0.00 0.00 47 1016.9
20260901195028 76 351 1.0 5.0 0.00 0.00 0.00 47 1017.0
20260901194555 76 126 2.0 5.0 0.00 0.00 0.00 47 1017.0
20260901194028 75 101 1.0 3.0 0.00 0.00 0.00 47 1017.0
20260901193529 75 195 0.0 4.0 0.00 0.00 0.00 49 1017.1
20260901193055 74 121 2.0 4.0 0.00 0.00 0.00 49 1017.0
20260901192528 73 0 1.0 3.0 0.00 0.00 0.00 50 1017.1
20260901192028 73 221 2.0 3.0 0.00 0.00 0.00 50 1017.2
20260901191604 73 347 1.0 4.0 0.00 0.00 0.00 52 1017.1
20260901191028 72 15 1.0 6.0 0.00 0.00 0.00 53 1017.2
20260901190530 72 19 2.0 6.0 0.00 0.00 0.00 53 1017.3
20260901190045 71 12 1.0 4.0 0.00 0.00 0.00 54 1017.2
20260901185528 71 353 1.0 5.0 0.00 0.00 0.00 55 1017.3
20260901185028 71 293 2.0 5.0 0.00 0.00 0.00 53 1017.3
20260901184607 71 0 0.0 4.0 0.00 0.00 0.00 54 1017.2
20260901184032 71 329 1.0 3.0 0.00 0.00 0.00 55 1017.3
20260901183529 71 0 1.0 3.0 0.00 0.00 0.00 56 1017.4
20260901183049 70 0 0.0 5.0 0.00 0.00 0.00 56 1017.4
20260901182530 69 0 1.0 5.0 0.00 0.00 0.00 57 1017.6
20260901182032 70 0 1.0 5.0 0.00 0.00 0.00 56 1017.5
20260901181556 69 0 0.0 5.0 0.00 0.00 0.00 58 1017.5
20260901181029 69 322 2.0 5.0 0.00 0.00 0.00 57 1017.5
20260901180531 69 345 1.0 3.0 0.00 0.00 0.00 57 1017.5
20260901180052 69 0 0.0 2.0 0.00 0.00 0.00 58 1017.7
20260901175529 69 342 1.0 3.0 0.00 0.00 0.00 58 1017.7
20260901175029 68 278 0.0 4.0 0.00 0.00 0.00 60 1017.6
20260901174557 68 291 1.0 5.0 0.00 0.00 0.00 60 1017.6
20260901174028 67 0 1.0 5.0 0.00 0.00 0.00 61 1017.7
20260901173529 67 326 2.0 4.0 0.00 0.00 0.00 59 1017.7
20260901173046 68 323 2.0 4.0 0.00 0.00 0.00 60 1017.7
20260901172529 68 287 0.0 2.0 0.00 0.00 0.00 59 1017.6
20260901172028 67 0 0.0 2.0 0.00 0.00 0.00 63 1017.6